TimeCST,TemperatureF,Dew PointF,Humidity,Sea Level PressureIn,VisibilityMPH,Wind Direction,Wind SpeedMPH,Gust SpeedMPH,PrecipitationIn,Events,Conditions,WindDirDegrees,DateUTC
12:14 AM,12.2,5.0,73,29.82,10.0,West,11.5,21.9,N/A,,Overcast,260,2012-12-04 06:14:00
12:35 AM,12.2,5.0,73,29.82,10.0,West,15.0,23.0,N/A,,Overcast,270,2012-12-04 06:35:00
12:54 AM,12.2,3.2,67,29.84,10.0,West,20.7,27.6,N/A,,Overcast,260,2012-12-04 06:54:00
1:14 AM,12.2,3.2,67,29.84,10.0,West,15.0,27.6,N/A,,Overcast,260,2012-12-04 07:14:00
1:35 AM,10.4,3.2,73,29.85,10.0,West,12.7,26.5,N/A,,Overcast,260,2012-12-04 07:35:00
1:54 AM,10.4,3.2,73,29.86,10.0,West,17.3,24.2,N/A,,Overcast,260,2012-12-04 07:54:00
2:14 AM,10.4,3.2,73,29.87,10.0,West,18.4,24.2,N/A,,Overcast,270,2012-12-04 08:14:00
2:54 AM,10.4,3.2,73,29.90,10.0,West,18.4,24.2,N/A,,Overcast,260,2012-12-04 08:54:00
3:14 AM,10.4,3.2,73,29.91,10.0,West,15.0,20.7,N/A,,Overcast,270,2012-12-04 09:14:00
3:34 AM,10.4,3.2,73,29.92,10.0,West,20.7,29.9,N/A,,Overcast,270,2012-12-04 09:34:00
3:54 AM,10.4,3.2,73,29.93,7.0,West,17.3,26.5,N/A,,Overcast,260,2012-12-04 09:54:00
4:14 AM,10.4,3.2,73,29.94,10.0,West,15.0,21.9,N/A,,Overcast,270,2012-12-04 10:14:00
4:34 AM,10.4,3.2,73,29.95,10.0,West,12.7,21.9,N/A,,Overcast,270,2012-12-04 10:34:00
4:54 AM,8.6,3.2,79,29.96,10.0,West,17.3,25.3,N/A,,Overcast,270,2012-12-04 10:54:00
5:14 AM,8.6,3.2,79,29.97,10.0,West,12.7,21.9,N/A,,Overcast,260,2012-12-04 11:14:00
5:34 AM,8.6,3.2,79,29.98,7.0,West,12.7,18.4,N/A,,Overcast,260,2012-12-04 11:34:00
5:54 AM,8.6,3.2,79,29.99,7.0,West,12.7,19.6,N/A,,Overcast,270,2012-12-04 11:54:00
6:15 AM,8.6,3.2,79,30.00,7.0,West,11.5,23.0,N/A,,Overcast,260,2012-12-04 12:15:00
6:34 AM,10.4,3.2,73,30.01,7.0,West,13.8,19.6,N/A,,Overcast,270,2012-12-04 12:34:00
6:54 AM,10.4,3.2,73,30.03,7.0,West,13.8,21.9,N/A,,Overcast,270,2012-12-04 12:54:00
7:14 AM,10.4,3.2,73,30.04,7.0,West,15.0,20.7,N/A,Snow,Light Snow,270,2012-12-04 13:14:00
7:34 AM,10.4,5.0,79,30.04,5.0,West,10.4,19.6,N/A,Snow,Light Snow,270,2012-12-04 13:34:00
7:54 AM,10.4,5.0,79,30.05,5.0,West,13.8,19.6,N/A,Snow,Light Snow,280,2012-12-04 13:54:00
8:14 AM,10.4,5.0,79,30.06,5.0,West,10.4,18.4,N/A,Snow,Light Snow,270,2012-12-04 14:14:00
8:34 AM,10.4,5.0,79,30.08,3.0,West,9.2,18.4,N/A,Snow,Light Snow,270,2012-12-04 14:34:00
8:54 AM,10.4,5.0,79,30.08,4.0,West,11.5,-,N/A,Snow,Light Snow,280,2012-12-04 14:54:00
9:14 AM,10.4,5.0,79,30.10,4.0,West,10.4,19.6,N/A,Snow,Light Snow,280,2012-12-04 15:14:00
9:35 AM,10.4,5.0,79,30.11,5.0,West,12.7,18.4,N/A,Snow,Light Snow,280,2012-12-04 15:35:00
9:54 AM,12.2,6.8,79,30.13,4.0,West,12.7,20.7,N/A,Snow,Light Snow,270,2012-12-04 15:54:00
10:14 AM,12.2,6.8,79,30.14,3.0,West,17.3,21.9,N/A,Snow,Light Snow,270,2012-12-04 16:14:00
10:35 AM,12.2,6.8,79,30.15,4.0,West,10.4,-,N/A,Snow,Light Snow,270,2012-12-04 16:35:00
10:54 AM,12.2,6.8,79,30.16,5.0,West,11.5,18.4,N/A,Snow,Light Snow,270,2012-12-04 16:54:00
11:14 AM,14.0,6.8,73,30.17,7.0,West,15.0,-,N/A,Snow,Light Snow,280,2012-12-04 17:14:00
11:35 AM,15.8,6.8,68,30.19,10.0,WNW,11.5,-,N/A,Snow,Light Snow,290,2012-12-04 17:35:00
12:14 PM,15.8,8.6,73,30.19,7.0,WNW,12.7,20.7,N/A,Snow,Light Snow,290,2012-12-04 18:14:00
12:35 PM,17.6,8.6,68,30.20,10.0,WNW,10.4,19.6,N/A,,Mostly Cloudy,300,2012-12-04 18:35:00
12:54 PM,17.6,8.6,68,30.21,10.0,WNW,11.5,17.3,N/A,,Scattered Clouds,290,2012-12-04 18:54:00
1:14 PM,19.4,10.4,68,30.21,10.0,WNW,12.7,17.3,N/A,,Scattered Clouds,290,2012-12-04 19:14:00
1:34 PM,17.6,8.6,68,30.22,10.0,WNW,10.4,-,N/A,,Scattered Clouds,290,2012-12-04 19:34:00
1:54 PM,19.4,10.4,68,30.22,10.0,WNW,10.4,-,N/A,,Clear,290,2012-12-04 19:54:00
2:14 PM,19.4,10.4,68,30.22,10.0,West,8.1,-,N/A,,Scattered Clouds,280,2012-12-04 20:14:00
2:34 PM,19.4,10.4,68,30.23,10.0,WNW,11.5,-,N/A,,Clear,300,2012-12-04 20:34:00
2:54 PM,19.4,10.4,68,30.24,10.0,NW,9.2,-,N/A,,Clear,310,2012-12-04 20:54:00
3:14 PM,19.4,10.4,68,30.25,10.0,NW,8.1,-,N/A,,Clear,310,2012-12-04 21:14:00
3:34 PM,17.6,8.6,68,30.27,10.0,NW,9.2,-,N/A,,Clear,310,2012-12-04 21:34:00
3:54 PM,17.6,8.6,68,30.27,10.0,NW,5.8,-,N/A,,Clear,320,2012-12-04 21:54:00
4:14 PM,15.8,8.6,73,30.28,10.0,NW,6.9,-,N/A,,Clear,310,2012-12-04 22:14:00
4:54 PM,14.0,8.6,79,30.30,10.0,NW,5.8,-,N/A,,Clear,310,2012-12-04 22:54:00
5:14 PM,14.0,8.6,79,30.31,10.0,WNW,5.8,-,N/A,,Clear,300,2012-12-04 23:14:00
5:34 PM,12.2,6.8,79,30.32,10.0,WNW,4.6,-,N/A,,Clear,290,2012-12-04 23:34:00
5:54 PM,12.2,6.8,79,30.33,10.0,WNW,5.8,-,N/A,,Clear,300,2012-12-04 23:54:00
6:14 PM,12.2,6.8,79,30.34,10.0,NW,4.6,-,N/A,Snow,Light Snow,310,2012-12-05 00:14:00
6:34 PM,10.4,6.8,85,30.36,10.0,NW,5.8,-,N/A,Snow,Light Snow,310,2012-12-05 00:34:00
6:54 PM,10.4,6.8,85,30.36,10.0,NW,4.6,-,N/A,,Clear,320,2012-12-05 00:54:00
7:14 PM,10.4,6.8,85,30.35,10.0,North,6.9,-,N/A,,Clear,350,2012-12-05 01:14:00
7:34 PM,10.4,6.8,85,30.34,10.0,NNW,3.5,-,N/A,Snow,Light Snow,340,2012-12-05 01:34:00
7:55 PM,10.4,6.8,85,30.33,10.0,Calm,Calm,-,N/A,Snow,Light Snow,0,2012-12-05 01:55:00
8:14 PM,10.4,6.8,85,30.33,10.0,NW,3.5,-,N/A,Snow,Light Snow,310,2012-12-05 02:14:00
8:34 PM,12.2,8.6,85,30.33,10.0,Calm,Calm,-,N/A,,Overcast,0,2012-12-05 02:34:00
8:53 PM,12.2,8.6,85,30.33,10.0,Calm,Calm,-,N/A,,Overcast,0,2012-12-05 02:53:00
9:14 PM,12.2,8.6,85,30.33,10.0,Calm,Calm,-,N/A,,Overcast,0,2012-12-05 03:14:00
9:34 PM,12.2,8.6,85,30.33,10.0,Calm,Calm,-,N/A,,Overcast,0,2012-12-05 03:34:00
9:53 PM,12.2,8.6,85,30.34,10.0,Calm,Calm,-,N/A,Snow,Light Snow,0,2012-12-05 03:53:00
10:14 PM,12.2,8.6,85,30.34,10.0,Calm,Calm,-,N/A,Snow,Light Snow,0,2012-12-05 04:14:00
10:34 PM,12.2,8.6,85,30.35,10.0,Calm,Calm,-,N/A,,Overcast,0,2012-12-05 04:34:00
10:53 PM,10.4,8.6,92,30.36,10.0,Calm,Calm,-,N/A,Snow,Light Snow,0,2012-12-05 04:53:00
11:14 PM,10.4,6.8,85,30.37,10.0,SW,3.5,-,N/A,,Clear,220,2012-12-05 05:14:00
11:34 PM,10.4,6.8,85,30.37,10.0,Calm,Calm,-,N/A,,Clear,0,2012-12-05 05:34:00
11:53 PM,10.4,6.8,85,30.36,10.0,Calm,Calm,-,N/A,,Clear,0,2012-12-05 05:53:00